紫金山第2彗星

60P/Tsuchinshan 2 (2012)

English version
Home page
Updated on May 3, 2012

---------------------------------------------------------------------

・ プロフィール

・ 写真集

・ 軌道要素

Epoch 2012 June 2.0 TT = JDT 2456080.5
T 2012 May 13.52588 TT                                  MPC
q   1.6181580            (2000.0)            P               Q
n   0.15015068     Peri.  216.38153     -0.55897256     -0.82679509
a   3.5057788      Node   267.68457     +0.77485001     -0.49381808
e   0.5384312      Incl.    3.61067     +0.29522387     -0.26935773
P   6.56
From 290 observations 1971 Sept. 19-2011 Oct. 30, mean residual 0".7.
     Nongravitational parameters A1 = +0.00, A2 = +0.0002.

・ 星図

・ 光度変化

        m1 = 9.5 + 5 logΔ + 25 log r(t - 22)

---------------------------------------------------------------------

軌道要素はM.P.E.C. 2011-V31に掲載されたものです。
星図はステラナビゲータ Ver.8 (アストロアーツ) で作成したものです。
光度グラフはComet for Windowsで作成したものです。

---------------------------------------------------------------------

Copyright(C) Seiichi Yoshida (comet@aerith.net). All rights reserved.